Location: Ambrosina
(19.9365°S, 43.9833°W)
Time: 01:26:32
(UTC+00:00)

IRIDIUM 103 - Pass Details

Date: 11 May 2021
Orbit: 776 x 779 km, 86.4° (Epoch: 20 June)

Event Time Altitude Azimuth Distance (km) Brightness Sun altitude
Rises 21:10:12 0° 181° (S) 3,278 7.4 -10.1°
Reaches altitude 10° 21:12:34 10° 181° (S) 2,345 6.7 -10.6°
Maximum altitude 21:17:50 90° 83° (E) 786 4.3 -11.8°
Drops below altitude 10° 21:23:02 10° 360° (N) 2,321 7.0 -13.0°
Sets 21:25:22 0° 360° (N) 3,243 7.7 -13.6°
